Home   Weather   Tórshavn   Past weeks

Flag for Faroe Islands Past Weather in Tórshavn, Faroe Islands — Yesterday and Last 2 Weeks

Now
48 °F

Light rain. Fog.


Feels Like: 45 °F
Forecast: 47 / 50 °F
Wind: 7 mph from West

Location: Soervaag / Vagar

Current Time: Dec 8, 2016 at 6:02:32 am

Latest Report: Dec 8, 2016 at 5:20 am


Visibility: 2 mi

Pressure: 29.50 "Hg

Humidity: 100%

Dew Point: 48 °F

Location of TórshavnLocation

Past Weather in Tórshavn — Graph

°F

Tórshavn Temperature Yesterday

Maximum temperature yesterday: 48 °F (at 1:20 am)
Minimum temperature yesterday: 45 °F (at 7:50 pm)
Average temperature yesterday: 47 °F

High & Low Weather Summary for the Past Weeks

 TemperatureHumidityPressure
High50 °F (Nov 25, 6:20 am)100% (Nov 24, 5:20 am)30.48 "Hg (Nov 24, 5:20 am)
Low34 °F (Nov 26, 11:20 pm)70% (Nov 26, 6:20 am)29.33 "Hg (Dec 7, 4:50 pm)
Average44 °F89%30.07 "Hg
* Reported Nov 23 4:20 am — Dec 8 4:50 am, Tórshavn, Weather by CustomWeather, © 2016

Note: Actual official high and low records may vary slightly from our data, if they occured in-between our weather recording intervals... More about our weather records

Advertising

Tórshavn Weather History for the Previous 24 Hours

Scroll right to see more
 ConditionsComfort  
Time TempWeatherWind HumidityBarometerVisibility
4:50 am
Thu, Dec 8
46 °FDrizzle. Low clouds.2 mph93%29.50 "Hg1 mi
4:20 am46 °FDrizzle. Low clouds.1 mph93%29.50 "Hg1 mi
3:50 am46 °FDrizzle. Low clouds.2 mph93%29.50 "Hg1 mi
3:20 am46 °FLight rain. Fog.6 mph93%29.50 "Hg1 mi
2:20 am45 °FFog.12 mph100%29.50 "Hg2 mi
1:20 am45 °FPassing clouds.14 mph100%29.47 "Hg5 mi
12:50 am45 °FFog.14 mph100%29.47 "Hg2 mi
12:20 am46 °FSprinkles. Fog.15 mph93%29.47 "Hg1 mi
11:50 pm
Wed, Dec 7
46 °FSprinkles. Fog.16 mph93%29.47 "Hg1 mi
11:20 pm46 °FSprinkles. Fog.16 mph93%29.47 "Hg2 mi
10:50 pm45 °FLight rain. Fog.14 mph100%29.45 "Hg2 mi
10:20 pm45 °FFog.7 mph100%29.45 "Hg2 mi
9:50 pm45 °FPassing clouds.9 mph100%29.42 "Hg4 mi
9:20 pm45 °FLow clouds.7 mph100%29.42 "HgN/A
8:50 pm45 °FFog.7 mph100%29.42 "Hg1 mi
8:20 pm45 °FLow clouds.10 mph100%29.39 "HgN/A
7:50 pm45 °FLow clouds.7 mph100%29.39 "Hg4 mi
7:20 pm46 °FFog.8 mph100%29.36 "Hg0 mi
6:50 pm46 °FSprinkles. Fog.9 mph100%29.36 "Hg1 mi
6:20 pm46 °FLight rain. Fog.7 mph100%29.36 "Hg0 mi
5:50 pm48 °FFog.3 mph100%29.36 "Hg1 mi
5:20 pm48 °FFog.2 mph100%29.36 "Hg1 mi
4:50 pm48 °FFog.3 mph100%29.33 "Hg1 mi
4:20 pm48 °FFog.3 mph100%29.36 "Hg0 mi
3:50 pm48 °FFog.3 mph100%29.36 "Hg0 mi
3:20 pm48 °FFog.7 mph100%29.36 "Hg1 mi
2:50 pm48 °FDrizzle. Fog.7 mph100%29.36 "Hg1 mi
2:20 pm48 °FDrizzle. Fog.8 mph100%29.39 "Hg1 mi
1:50 pm48 °FFog.8 mph100%29.42 "Hg0 mi
1:20 pm48 °FFog.7 mph100%29.42 "Hg0 mi
12:50 pm48 °FDrizzle. Fog.8 mph100%29.42 "Hg0 mi
12:20 pm48 °FSprinkles. Fog.7 mph100%29.42 "Hg1 mi
11:50 am48 °FFog.9 mph100%29.45 "Hg0 mi
11:20 am48 °FFog.12 mph100%29.45 "Hg1 mi
10:50 am48 °FFog.10 mph100%29.47 "Hg1 mi
10:20 am48 °FLight rain. Fog.10 mph100%29.47 "Hg1 mi
9:50 am48 °FSprinkles. Fog.2 mph100%29.47 "Hg1 mi
9:20 am48 °FSprinkles. Fog.6 mph100%29.47 "Hg0 mi
8:50 am48 °FDrizzle. Low clouds.9 mph100%29.47 "Hg1 mi
8:20 am46 °FDrizzle. Fog.5 mph100%29.47 "Hg1 mi
7:50 am46 °FDrizzle. Fog.5 mph100%29.47 "Hg1 mi
7:20 am46 °FDrizzle. Fog.8 mph100%29.50 "Hg0 mi
6:50 am46 °FDrizzle. Low clouds.8 mph100%29.50 "Hg1 mi
6:20 am46 °FDrizzle. Low clouds.14 mph100%29.50 "Hg1 mi
Weather by CustomWeather, © 2016

See weather overviewHow to use our weather pages